CW1459 Weather Reports


time (UTC)temp
F
wind
direction
speed
knots
gust
knots
rain 1hr
in
rain 24hr
in
rain mn
in
humidity
%
barometer
mb
20260902030335 78 125 0.9 2.6 0.00 0.00 0.00 78 1015.0
20260902025320 78 125 0.9 3.5 0.00 0.00 0.00 78 1014.9
20260902024333 78 235 0.9 2.6 0.00 0.00 0.00 78 1014.7
20260902023318 78 98 1.7 2.6 0.00 0.00 0.00 78 1014.4
20260902022320 78 152 0.9 4.3 0.00 0.00 0.00 78 1014.3
20260902021336 78 113 0.0 3.5 0.00 0.00 0.00 78 1014.4
20260902020318 79 128 0.9 2.6 0.00 0.00 0.00 77 1014.4
20260902015318 79 128 1.7 2.6 0.00 0.00 0.00 76 1014.5
20260902014320 80 128 0.9 1.7 0.00 0.00 0.00 74 1014.4
20260902013315 81 128 0.9 2.6 0.00 0.00 0.00 72 1014.4
20260902012315 83 128 1.7 2.6 0.00 0.00 0.00 70 1014.5
20260902011334 83 284 1.7 2.6 0.00 0.00 0.00 67 1014.6
20260902010334 84 272 0.9 5.2 0.00 0.00 0.00 66 1014.3
20260902005318 83 284 3.5 9.6 0.00 0.00 0.00 66 1013.7
20260902004338 84 244 1.7 3.5 0.00 0.00 0.00 67 1013.4
20260902003337 85 293 0.9 8.7 0.00 0.00 0.00 65 1013.3
20260902002340 85 265 3.5 8.7 0.00 0.00 0.00 65 1013.3
20260902001314 85 300 4.3 7.8 0.00 0.00 0.00 65 1013.1
20260902000331 85 257 1.7 7.8 0.00 0.00 0.00 66 1013.1
20260901235315 86 238 1.7 3.5 0.00 0.00 0.00 65 1013.0
20260901234335 86 241 1.7 4.3 0.00 0.00 0.00 64 1012.8
20260901233315 87 229 1.7 7.0 0.00 0.00 0.00 63 1012.7
20260901232315 88 250 2.6 6.1 0.00 0.00 0.00 62 1012.7
20260901231317 89 236 2.6 4.3 0.00 0.00 0.00 62 1012.6
20260901230355 90 246 1.7 7.8 0.00 0.00 0.00 59 1012.7
20260901225314 91 302 2.6 8.7 0.00 0.00 0.00 57 1012.7
20260901224339 91 315 1.7 7.0 0.00 0.00 0.00 56 1012.7
20260901223316 92 330 3.5 4.3 0.00 0.00 0.00 58 1012.7
20260901222340 92 304 1.7 6.1 0.00 0.00 0.00 55 1012.7
20260901221322 92 281 1.7 6.1 0.00 0.00 0.00 57 1012.7
20260901220320 91 297 2.6 4.3 0.00 0.00 0.00 56 1012.7
20260901215317 91 252 1.7 7.0 0.00 0.00 0.00 56 1012.7
20260901214316 92 309 3.5 7.8 0.00 0.00 0.00 55 1012.7
20260901213332 92 309 2.6 5.2 0.00 0.00 0.00 56 1012.9
20260901212321 91 288 4.3 8.7 0.00 0.00 0.00 54 1012.9
20260901211314 91 280 3.5 8.7 0.00 0.00 0.00 54 1012.9
20260901210338 92 280 5.2 11.3 0.00 0.00 0.00 53 1012.8
20260901205313 92 277 4.3 9.6 0.00 0.00 0.00 54 1012.9
20260901204322 93 322 3.5 8.7 0.00 0.00 0.00 52 1012.8
20260901203316 94 265 4.3 11.3 0.00 0.00 0.00 52 1012.9
20260901202329 94 315 7.0 11.3 0.00 0.00 0.00 50 1012.9
20260901201334 95 302 5.2 8.7 0.00 0.00 0.00 54 1013.0
20260901200335 95 316 5.2 10.4 0.00 0.00 0.00 51 1013.0
20260901195322 95 293 5.2 9.6 0.00 0.00 0.00 50 1013.0
20260901194317 95 269 5.2 10.4 0.00 0.00 0.00 51 1013.1
20260901193338 94 254 2.6 8.7 0.00 0.00 0.00 54 1013.2
20260901192337 93 257 1.7 8.7 0.00 0.00 0.00 54 1013.3
20260901191314 93 292 4.3 8.7 0.00 0.00 0.00 52 1013.5
20260901190315 94 297 7.0 10.4 0.00 0.00 0.00 52 1013.7
20260901185314 94 306 7.0 11.3 0.00 0.00 0.00 52 1013.7
20260901184321 93 309 4.3 8.7 0.00 0.00 0.00 54 1013.9
20260901183315 94 298 0.9 12.2 0.00 0.00 0.00 57 1013.9
20260901182358 93 320 3.5 7.0 0.00 0.00 0.00 61 1014.1
20260901181336 93 291 1.7 8.7 0.00 0.00 0.00 59 1014.2
20260901180314 92 327 4.3 7.8 0.00 0.00 0.00 62 1014.3
20260901175339 92 238 2.6 7.0 0.00 0.00 0.00 62 1014.3
20260901174317 90 180 2.6 6.1 0.00 0.00 0.00 65 1014.4
20260901173337 91 241 3.5 8.7 0.00 0.00 0.00 64 1014.2
20260901172358 89 202 4.3 7.0 0.00 0.00 0.00 68 1014.3
20260901171338 89 161 2.6 4.3 0.00 0.00 0.00 68 1014.4
20260901170317 88 182 2.6 6.1 0.00 0.00 0.00 69 1014.5
20260901165339 88 229 1.7 4.3 0.00 0.00 0.00 72 1014.7
20260901164320 88 292 1.7 4.3 0.00 0.00 0.00 70 1014.8
20260901163316 87 228 1.7 5.2 0.00 0.00 0.00 71 1014.8
20260901162317 87 173 1.7 3.5 0.00 0.00 0.00 71 1014.8
20260901161318 87 211 1.7 7.0 0.00 0.00 0.00 72 1015.1
20260901160316 87 233 0.9 7.0 0.00 0.00 0.00 67 1015.4
20260901155342 88 159 3.5 7.0 0.00 0.00 0.00 67 1015.3
20260901154330 87 249 1.7 6.1 0.00 0.00 0.00 71 1015.4
20260901153324 87 271 2.6 8.7 0.00 0.00 0.00 70 1015.5
20260901152312 87 217 4.3 7.0 0.00 0.00 0.00 68 1015.4
20260901151313 86 179 2.6 5.2 0.00 0.00 0.00 73 1015.4
20260901150335 84 208 2.6 5.2 0.00 0.00 0.00 76 1015.5
20260901145328 84 227 1.7 4.3 0.00 0.00 0.00 73 1015.6
20260901144319 84 175 3.5 5.2 0.00 0.00 0.00 73 1015.5
20260901143349 83 116 2.6 7.8 0.00 0.00 0.00 75 1015.7
20260901142312 83 244 2.6 7.8 0.00 0.00 0.00 75 1015.8
20260901141337 81 189 2.6 5.2 0.00 0.00 0.00 80 1015.8
20260901140335 79 209 1.7 4.3 0.00 0.00 0.00 81 1015.8
20260901135318 79 158 1.7 5.2 0.00 0.00 0.00 80 1015.9
20260901134312 79 178 2.6 4.3 0.00 0.00 0.00 81 1016.0
20260901133320 80 164 1.7 4.3 0.00 0.00 0.00 80 1016.0
20260901132331 79 180 2.6 4.3 0.00 0.00 0.00 81 1016.0
20260901131313 79 224 1.7 4.3 0.00 0.00 0.00 84 1016.0
20260901130334 77 126 2.6 5.2 0.00 0.00 0.00 87 1016.0
20260901125314 76 151 0.9 1.7 0.00 0.00 0.00 88 1016.2
20260901124315 76 204 0.9 1.7 0.00 0.00 0.00 88 1016.4
20260901123352 76 165 1.7 2.6 0.00 0.00 0.00 89 1016.3
20260901122314 75 170 1.7 2.6 0.00 0.00 0.00 90 1016.4
20260901121337 75 157 0.9 2.6 0.00 0.00 0.00 91 1016.4
20260901120316 74 202 0.9 2.6 0.00 0.00 0.00 92 1016.3
20260901115358 74 202 0.9 1.7 0.00 0.00 0.00 92 1016.3
20260901114314 73 202 0.0 1.7 0.00 0.00 0.00 92 1016.2
20260901113334 73 202 0.9 2.6 0.00 0.00 0.00 92 1016.2
20260901112352 73 150 0.0 0.0 0.00 0.00 0.00 92 1016.0
20260901111312 72 150 0.0 0.9 0.00 0.00 0.00 92 1015.8
20260901110313 72 150 0.0 1.7 0.00 0.00 0.00 91 1015.8
20260901105313 73 167 0.9 2.6 0.00 0.00 0.00 91 1015.7
20260901104339 73 167 0.9 1.7 0.00 0.00 0.00 90 1015.8
20260901103321 73 167 0.9 1.7 0.00 0.00 0.00 90 1015.6
20260901102314 73 167 0.0 0.9 0.00 0.00 0.00 90 1015.6
20260901101340 74 167 0.0 0.9 0.00 0.00 0.00 89 1015.6
20260901100312 74 167 0.0 0.9 0.00 0.00 0.00 89 1015.7
20260901095337 74 167 0.0 1.7 0.00 0.00 0.00 89 1015.7
20260901094312 74 167 0.0 2.6 0.00 0.00 0.00 89 1015.7
20260901093313 74 192 0.9 1.7 0.00 0.00 0.00 89 1015.7
20260901092342 74 180 1.7 3.5 0.00 0.00 0.00 89 1015.6
20260901091316 74 165 1.7 3.5 0.00 0.00 0.00 89 1015.6
20260901090402 74 184 1.7 4.3 0.00 0.00 0.00 89 1015.5
20260901085329 74 200 0.9 3.5 0.00 0.00 0.00 90 1015.5
20260901084332 74 153 0.9 3.5 0.00 0.00 0.00 90 1015.5
20260901083328 74 169 1.7 2.6 0.00 0.00 0.00 90 1015.5
20260901082344 74 190 0.0 1.7 0.00 0.00 0.00 90 1015.9
20260901081333 74 190 0.0 1.7 0.00 0.00 0.00 90 1015.9
20260901080347 74 190 0.0 0.0 0.00 0.00 0.00 90 1015.9
20260901075330 74 190 0.0 2.6 0.00 0.00 0.00 90 1015.9
20260901074318 74 186 1.7 4.3 0.00 0.00 0.00 90 1015.8
20260901073331 74 213 0.0 1.7 0.00 0.00 0.00 90 1015.7
20260901072316 74 169 0.9 1.7 0.00 0.00 0.00 91 1015.6
20260901071323 74 210 1.7 2.6 0.00 0.00 0.00 91 1015.6
20260901070336 74 215 0.9 2.6 0.00 0.00 0.00 92 1015.7
20260901065318 74 188 0.9 2.6 0.00 0.00 0.00 93 1015.6
20260901064316 73 169 0.9 2.6 0.00 0.00 0.00 93 1015.9
20260901063317 73 213 1.7 4.3 0.00 0.00 0.00 93 1016.0
20260901062336 73 169 0.9 1.7 0.00 0.00 0.00 93 1016.2
20260901061318 73 169 0.0 0.9 0.00 0.00 0.00 93 1016.3
20260901060318 73 169 0.0 0.9 0.00 0.00 0.00 92 1016.3
20260901055315 73 169 0.9 1.7 0.00 0.00 0.00 92 1016.4
20260901054337 73 169 0.0 0.9 0.00 0.00 0.00 92 1016.5
20260901053316 74 169 0.0 0.9 0.00 0.00 0.00 92 1016.5
20260901052318 74 169 0.0 0.0 0.00 0.00 0.00 92 1016.4
20260901051317 74 169 0.0 0.9 0.00 0.00 0.00 92 1016.5
20260901050336 74 169 0.0 0.9 0.00 0.00 0.00 92 1016.5
20260901045339 74 169 0.0 0.0 0.00 0.00 0.00 92 1016.4
20260901044339 74 169 0.0 0.0 0.00 0.00 0.00 91 1016.3
20260901043328 74 169 0.0 0.9 0.00 0.00 0.00 91 1016.4
20260901042334 74 169 0.0 2.6 0.00 0.00 0.00 91 1016.4
20260901041326 74 169 0.0 1.7 0.00 0.00 0.00 91 1016.5
20260901040353 74 164 0.9 1.7 0.00 0.00 0.00 91 1016.6
20260901035320 73 219 0.0 0.9 0.00 0.00 0.00 91 1016.7
20260901034316 73 219 0.0 0.9 0.00 0.00 0.00 91 1016.9
20260901033353 73 219 0.0 0.9 0.00 0.00 0.00 91 1016.9
20260901032334 73 297 0.0 0.0 0.00 0.00 0.00 91 1017.0
20260901031336 73 297 0.0 0.9 0.00 0.00 0.00 91 1017.0